{"data":{"norad_id":63049,"epoch":"2026-05-24T15:41:00.630528Z","epoch_age_seconds":102114,"freshness":"FRESH","line1":"1 63049U 25034W   26144.65347952  .00004301  00000+0  13845-3 0  9995","line2":"2 63049  53.1595 277.6071 0001221  89.7414 270.3729 15.34378215 70546","mean_motion":15.34378215,"eccentricity":0.0001221,"inclination_deg":53.1595,"raan_deg":277.6071,"arg_perigee_deg":89.7414,"mean_anomaly_deg":270.3729,"bstar":0.00013845,"rev_number":7054,"period_min":93.849090525572,"perigee_km":461.93271608483,"apogee_km":463.60326508353,"semimajor_km":6840.9049905842,"source":"CELESTRAK","updated_at":"2026-05-25T13:38:19.870125Z"}}